MTN8974 KACK-KMVY

Flight info

Callsign MTN8974
Flight time 0h 14m
Altitude VFR/025
Route
Aircraft C208/L-DOV/C

Departure

Time 2026-04-22 21:00
Airport Nantucket Memorial Airport (KACK)

Arrival

Time 2026-04-22 21:14
Airport Martha's Vineyard Airport (KMVY)
Time Latitude Longitude Altitude Speed Heading
2026-04-22 20:56 41.25752 -70.06169 50 ft 0 kts 134°
2026-04-22 20:57 41.25743 -70.06157 49 ft 2 kts 133°
2026-04-22 20:58 41.25745 -70.06131 52 ft 0 kts 47°
2026-04-22 20:58 41.25745 -70.06132 52 ft 0 kts 47°
2026-04-22 20:59 41.25746 -70.06129 52 ft 3 kts 48°
2026-04-22 20:59 41.25780 -70.06071 52 ft 12 kts 95°
2026-04-22 20:59 41.25705 -70.05955 50 ft 21 kts 137°
2026-04-22 20:59 41.25524 -70.05714 54 ft 58 kts 140°
2026-04-22 21:00 41.25176 -70.05238 123 ft 85 kts 141°
2026-04-22 21:00 41.24733 -70.04639 370 ft 96 kts 138°
2026-04-22 21:00 41.24199 -70.04063 637 ft 101 kts 160°
2026-04-22 21:00 41.23493 -70.04092 921 ft 112 kts 198°
2026-04-22 21:01 41.22932 -70.04904 1124 ft 136 kts 245°
2026-04-22 21:01 41.23063 -70.06224 1320 ft 156 kts 287°
2026-04-22 21:01 41.23499 -70.07537 1540 ft 153 kts 284°
2026-04-22 21:01 41.23892 -70.08841 1749 ft 151 kts 283°
2026-04-22 21:02 41.24274 -70.10126 1958 ft 149 kts 283°
2026-04-22 21:02 41.24653 -70.11396 2162 ft 147 kts 283°
2026-04-22 21:02 41.25025 -70.12645 2368 ft 144 kts 283°
2026-04-22 21:02 41.25392 -70.13881 2540 ft 145 kts 283°
2026-04-22 21:03 41.25771 -70.15174 2544 ft 154 kts 284°
2026-04-22 21:03 41.26171 -70.16519 2551 ft 159 kts 284°
2026-04-22 21:03 41.26580 -70.17897 2557 ft 161 kts 284°
2026-04-22 21:03 41.26992 -70.19292 2558 ft 162 kts 284°
2026-04-22 21:04 41.27409 -70.20693 2554 ft 164 kts 284°
2026-04-22 21:04 41.27827 -70.22107 2556 ft 164 kts 283°
2026-04-22 21:04 41.28239 -70.23524 2554 ft 165 kts 284°
2026-04-22 21:04 41.28658 -70.24941 2554 ft 165 kts 284°
2026-04-22 21:05 41.29078 -70.26358 2555 ft 165 kts 284°
2026-04-22 21:05 41.29499 -70.27780 2556 ft 166 kts 286°
2026-04-22 21:05 41.29956 -70.29190 2554 ft 165 kts 284°
2026-04-22 21:05 41.30343 -70.30622 2554 ft 164 kts 282°
2026-04-22 21:06 41.30739 -70.32029 2547 ft 165 kts 284°
2026-04-22 21:06 41.31158 -70.33446 2547 ft 165 kts 283°
2026-04-22 21:06 41.31577 -70.34863 2541 ft 165 kts 283°
2026-04-22 21:06 41.31994 -70.36280 2539 ft 165 kts 284°
2026-04-22 21:07 41.32411 -70.37704 2545 ft 166 kts 284°
2026-04-22 21:07 41.32834 -70.39151 2546 ft 169 kts 284°
2026-04-22 21:07 41.33349 -70.40574 2541 ft 172 kts 292°
2026-04-22 21:07 41.33929 -70.41960 2536 ft 170 kts 292°
2026-04-22 21:08 41.34576 -70.43283 2536 ft 171 kts 298°
2026-04-22 21:08 41.35264 -70.44572 2538 ft 172 kts 298°
2026-04-22 21:08 41.35964 -70.45872 2538 ft 173 kts 298°
2026-04-22 21:08 41.36666 -70.47179 2535 ft 173 kts 298°
2026-04-22 21:09 41.37362 -70.48477 2529 ft 172 kts 298°
2026-04-22 21:09 41.38056 -70.49765 2528 ft 171 kts 298°
2026-04-22 21:09 41.38750 -70.51048 2527 ft 171 kts 298°
2026-04-22 21:09 41.39439 -70.52333 2526 ft 171 kts 297°
2026-04-22 21:10 41.40107 -70.53640 2527 ft 170 kts 296°
2026-04-22 21:10 41.40756 -70.54954 2532 ft 169 kts 296°
2026-04-22 21:10 41.41403 -70.56264 2530 ft 169 kts 296°
2026-04-22 21:10 41.42052 -70.57573 2532 ft 169 kts 296°
2026-04-22 21:11 41.42702 -70.58884 2532 ft 169 kts 295°
2026-04-22 21:11 41.43243 -70.60258 2463 ft 167 kts 287°
2026-04-22 21:11 41.43729 -70.61655 2327 ft 165 kts 287°
2026-04-22 21:11 41.44195 -70.63046 2189 ft 162 kts 279°
2026-04-22 21:12 41.44210 -70.63988 2099 ft 150 kts 246°
2026-04-22 21:12 41.43889 -70.64796 2009 ft 143 kts 224°
2026-04-22 21:12 41.43269 -70.65274 1918 ft 138 kts 193°
2026-04-22 21:12 41.42343 -70.65201 1664 ft 133 kts 160°
2026-04-22 21:13 41.41654 -70.64677 1447 ft 102 kts 152°
2026-04-22 21:13 41.41255 -70.64053 1014 ft 86 kts 128°
2026-04-22 21:13 41.40916 -70.63472 667 ft 72 kts 145°
2026-04-22 21:13 41.40525 -70.63055 455 ft 72 kts 144°
2026-04-22 21:14 41.40185 -70.62570 305 ft 72 kts 138°
2026-04-22 21:14 41.39857 -70.62087 145 ft 71 kts 137°
2026-04-22 21:14 41.39566 -70.61646 70 ft 54 kts 132°
2026-04-22 21:14 41.39358 -70.61327 67 ft 38 kts 131°
2026-04-22 21:15 41.39244 -70.61150 64 ft 15 kts 128°
2026-04-22 21:15 41.39177 -70.61159 61 ft 13 kts 218°
2026-04-22 21:15 41.39096 -70.61211 65 ft 12 kts 158°
2026-04-22 21:15 41.39054 -70.61173 65 ft 8 kts 254°
2026-04-22 21:16 41.39061 -70.61193 62 ft 0 kts 311°